| time (UTC) | temp F | wind direction | speed MPH | gust MPH | rain 1hr in | rain 24hr in | rain mn in | humidity % | barometer mb |
| 20260904051541 | 70 | 309 | 4.0 | 6.0 | 0.00 | 0.21 | 0.00 | 91 | 1014.5 |
| 20260904050040 | 70 | 304 | 4.0 | 6.0 | 0.00 | 0.21 | 0.00 | 91 | 1014.6 |
| 20260904044537 | 70 | 318 | 5.0 | 6.0 | 0.00 | 0.21 | 0.00 | 92 | 1014.5 |
| 20260904043042 | 70 | 304 | 5.0 | 8.0 | 0.00 | 0.21 | 0.00 | 92 | 1014.5 |
| 20260904041533 | 69 | 308 | 5.0 | 6.0 | 0.00 | 0.21 | 0.00 | 94 | 1014.4 |
| 20260904040031 | 69 | 297 | 4.0 | 6.0 | 0.00 | 0.21 | 0.00 | 94 | 1014.2 |
| 20260904034537 | 69 | 280 | 4.0 | 5.0 | 0.00 | 0.21 | 0.21 | 94 | 1014.1 |
| 20260904033027 | 68 | 271 | 4.0 | 5.0 | 0.00 | 0.21 | 0.21 | 80 | 1014.2 |
| 20260904031527 | 66 | 225 | 0.0 | 1.0 | 0.00 | 0.21 | 0.21 | 74 | 1014.1 |
| 20260904030028 | 66 | 219 | 0.0 | 3.0 | 0.00 | 0.21 | 0.21 | 72 | 1014.0 |
| 20260904024526 | 65 | 190 | 0.0 | 2.0 | 0.00 | 0.21 | 0.21 | 79 | 1014.0 |
| 20260904023025 | 65 | 133 | 1.0 | 2.0 | 0.00 | 0.21 | 0.21 | 80 | 1013.8 |
| 20260904021528 | 65 | 170 | 0.0 | 1.0 | 0.00 | 0.21 | 0.21 | 80 | 1013.7 |
| 20260904020025 | 65 | 167 | 0.0 | 1.0 | 0.00 | 0.21 | 0.21 | 81 | 1013.7 |
| 20260904014524 | 65 | 166 | 0.0 | 0.0 | 0.00 | 0.22 | 0.21 | 84 | 1013.6 |
| 20260904013022 | 65 | 167 | 0.0 | 0.0 | 0.00 | 0.22 | 0.21 | 85 | 1013.5 |
| 20260904011523 | 66 | 166 | 0.0 | 0.0 | 0.00 | 0.22 | 0.21 | 86 | 1013.5 |
| 20260904010122 | 66 | 166 | 0.0 | 0.0 | 0.00 | 0.22 | 0.21 | 90 | 1013.2 |
| 20260904004521 | 66 | 167 | 0.0 | 0.0 | 0.00 | 0.32 | 0.21 | 92 | 1012.9 |
| 20260904003023 | 67 | 166 | 0.0 | 0.0 | 0.00 | 0.32 | 0.21 | 93 | 1012.6 |
| 20260904001520 | 68 | 166 | 0.0 | 0.0 | 0.00 | 0.32 | 0.21 | 94 | 1012.4 |
| 20260904000020 | 69 | 165 | 0.0 | 0.0 | 0.00 | 0.32 | 0.21 | 94 | 1012.5 |
| 20260903234519 | 70 | 165 | 0.0 | 0.0 | 0.00 | 0.33 | 0.21 | 94 | 1012.6 |
| 20260903233018 | 69 | 183 | 0.0 | 0.0 | 0.00 | 0.33 | 0.21 | 84 | 1012.7 |
| 20260903231529 | 67 | 71 | 0.0 | 0.0 | 0.00 | 0.33 | 0.21 | 90 | 1012.4 |
| 20260903230024 | 67 | 71 | 0.0 | 0.0 | 0.01 | 0.33 | 0.21 | 91 | 1012.4 |
| 20260903224531 | 67 | 70 | 0.0 | 0.0 | 0.01 | 0.35 | 0.21 | 92 | 1012.2 |
| 20260903223015 | 67 | 153 | 0.0 | 1.0 | 0.01 | 0.35 | 0.21 | 93 | 1011.1 |
| 20260903221515 | 68 | 142 | 0.0 | 1.0 | 0.02 | 0.35 | 0.21 | 94 | 1011.4 |
| 20260903220014 | 68 | 43 | 11.0 | 15.0 | 0.06 | 0.35 | 0.20 | 93 | 1011.6 |
| 20260903214528 | 68 | 20 | 14.0 | 17.0 | 0.10 | 0.42 | 0.20 | 94 | 1012.3 |
| 20260903213011 | 69 | 8 | 7.0 | 10.0 | 0.12 | 0.42 | 0.20 | 89 | 1012.5 |
| 20260903211510 | 69 | 355 | 0.0 | 6.0 | 0.14 | 0.40 | 0.19 | 90 | 1012.7 |
| 20260903210010 | 70 | 338 | 7.0 | 10.0 | 0.12 | 0.35 | 0.13 | 89 | 1013.7 |
| 20260903204511 | 70 | 329 | 7.0 | 10.0 | 0.09 | 0.31 | 0.10 | 90 | 1013.9 |
| 20260903203007 | 70 | 307 | 6.0 | 11.0 | 0.08 | 0.30 | 0.09 | 87 | 1013.6 |
| 20260903201507 | 71 | 304 | 7.0 | 10.0 | 0.04 | 0.26 | 0.05 | 88 | 1014.0 |
| 20260903200004 | 71 | 4 | 7.0 | 11.0 | 0.01 | 0.23 | 0.02 | 90 | 1013.3 |
| 20260903194506 | 71 | 32 | 8.0 | 11.0 | 0.00 | 0.22 | 0.01 | 89 | 1012.3 |
| 20260903193002 | 71 | 36 | 6.0 | 8.0 | 0.00 | 0.22 | 0.01 | 89 | 1012.1 |
| 20260903191502 | 71 | 40 | 8.0 | 9.0 | 0.00 | 0.22 | 0.01 | 89 | 1012.0 |
| 20260903190003 | 71 | 37 | 8.0 | 8.0 | 0.00 | 0.22 | 0.01 | 91 | 1012.3 |
| 20260903184601 | 72 | 26 | 6.0 | 7.0 | 0.00 | 0.22 | 0.01 | 92 | 1012.4 |
| 20260903183101 | 72 | 352 | 3.0 | 5.0 | 0.00 | 0.22 | 0.01 | 92 | 1012.8 |
| 20260903181601 | 72 | 277 | 1.0 | 3.0 | 0.00 | 0.22 | 0.01 | 92 | 1012.8 |
| 20260903180100 | 72 | 274 | 4.0 | 7.0 | 0.00 | 0.22 | 0.01 | 92 | 1013.5 |
| 20260903174559 | 72 | 271 | 4.0 | 5.0 | 0.00 | 0.22 | 0.01 | 92 | 1013.4 |
| 20260903173055 | 72 | 267 | 4.0 | 6.0 | 0.00 | 0.22 | 0.01 | 90 | 1013.2 |
| 20260903171553 | 72 | 260 | 7.0 | 8.0 | 0.00 | 0.22 | 0.01 | 80 | 1013.5 |
| 20260903170050 | 71 | 264 | 4.0 | 6.0 | 0.00 | 0.22 | 0.01 | 75 | 1013.2 |
| 20260903164549 | 71 | 259 | 5.0 | 7.0 | 0.00 | 0.22 | 0.01 | 75 | 1013.4 |
| 20260903163047 | 71 | 255 | 7.0 | 8.0 | 0.00 | 0.22 | 0.01 | 78 | 1013.6 |
| 20260903161545 | 71 | 257 | 3.0 | 5.0 | 0.00 | 0.22 | 0.01 | 72 | 1013.4 |
| 20260903160044 | 71 | 269 | 3.0 | 4.0 | 0.00 | 0.22 | 0.01 | 70 | 1013.7 |
| 20260903154601 | 71 | 314 | 2.0 | 3.0 | 0.00 | 0.22 | 0.01 | 70 | 1013.2 |
| 20260903153040 | 71 | 309 | 1.0 | 2.0 | 0.00 | 0.22 | 0.01 | 70 | 1013.1 |
| 20260903151540 | 70 | 314 | 1.0 | 2.0 | 0.00 | 0.22 | 0.01 | 71 | 1012.9 |
| 20260903150039 | 70 | 311 | 1.0 | 2.0 | 0.00 | 0.22 | 0.01 | 71 | 1012.9 |
| 20260903144537 | 70 | 305 | 0.0 | 1.0 | 0.00 | 0.22 | 0.01 | 71 | 1013.0 |
| 20260903143044 | 69 | 304 | 1.0 | 2.0 | 0.00 | 0.22 | 0.01 | 72 | 1013.1 |
| 20260903141541 | 69 | 273 | 0.0 | 1.0 | 0.00 | 0.22 | 0.01 | 72 | 1013.0 |
| 20260903140033 | 69 | 248 | 0.0 | 0.0 | 0.00 | 0.22 | 0.01 | 72 | 1012.9 |
| 20260903134532 | 69 | 248 | 0.0 | 1.0 | 0.00 | 0.22 | 0.01 | 72 | 1013.0 |
| 20260903133034 | 69 | 250 | 0.0 | 1.0 | 0.00 | 0.22 | 0.01 | 72 | 1013.1 |
| 20260903131529 | 69 | 222 | 0.0 | 0.0 | 0.00 | 0.22 | 0.01 | 72 | 1013.0 |
| 20260903130035 | 68 | 204 | 0.0 | 0.0 | 0.00 | 0.22 | 0.01 | 72 | 1013.2 |
| 20260903124526 | 67 | 136 | 0.0 | 1.0 | 0.00 | 0.22 | 0.01 | 73 | 1013.2 |
| 20260903123032 | 67 | 142 | 0.0 | 2.0 | 0.00 | 0.22 | 0.01 | 73 | 1013.2 |
| 20260903121523 | 66 | 128 | 0.0 | 2.0 | 0.00 | 0.22 | 0.01 | 73 | 1013.1 |
| 20260903120023 | 66 | 145 | 0.0 | 1.0 | 0.00 | 0.22 | 0.01 | 73 | 1013.0 |
| 20260903114522 | 66 | 135 | 0.0 | 2.0 | 0.00 | 0.22 | 0.01 | 73 | 1013.0 |
| 20260903113027 | 65 | 135 | 0.0 | 1.0 | 0.00 | 0.22 | 0.01 | 73 | 1012.9 |
| 20260903111528 | 65 | 140 | 0.0 | 2.0 | 0.00 | 0.22 | 0.01 | 73 | 1012.8 |
| 20260903110017 | 65 | 139 | 0.0 | 3.0 | 0.00 | 0.22 | 0.01 | 73 | 1012.7 |
| 20260903104513 | 65 | 139 | 1.0 | 2.0 | 0.01 | 0.22 | 0.01 | 73 | 1012.4 |
| 20260903103011 | 66 | 138 | 1.0 | 2.0 | 0.01 | 0.22 | 0.01 | 73 | 1012.4 |
| 20260903101509 | 66 | 142 | 1.0 | 2.0 | 0.01 | 0.22 | 0.01 | 73 | 1012.2 |
| 20260903100008 | 66 | 138 | 0.0 | 2.0 | 0.01 | 0.22 | 0.01 | 72 | 1012.2 |
| 20260903094505 | 66 | 141 | 1.0 | 2.0 | 0.00 | 0.21 | 0.00 | 72 | 1012.0 |
| 20260903093004 | 66 | 141 | 1.0 | 3.0 | 0.00 | 0.21 | 0.00 | 72 | 1012.0 |
| 20260903091504 | 66 | 139 | 0.0 | 3.0 | 0.00 | 0.21 | 0.00 | 72 | 1011.8 |
| 20260903090003 | 66 | 134 | 1.0 | 2.0 | 0.00 | 0.21 | 0.00 | 72 | 1011.8 |
| 20260903084503 | 66 | 139 | 1.0 | 2.0 | 0.00 | 0.21 | 0.00 | 72 | 1011.8 |
| 20260903083002 | 67 | 138 | 0.0 | 0.0 | 0.00 | 0.21 | 0.00 | 72 | 1011.6 |
| 20260903081602 | 67 | 138 | 0.0 | 1.0 | 0.00 | 0.21 | 0.00 | 72 | 1011.6 |
| 20260903080100 | 66 | 138 | 0.0 | 2.0 | 0.00 | 0.21 | 0.00 | 72 | 1011.8 |
| 20260903074559 | 67 | 139 | 1.0 | 2.0 | 0.00 | 0.21 | 0.00 | 72 | 1011.7 |
| 20260903073059 | 67 | 139 | 1.0 | 2.0 | 0.00 | 0.21 | 0.00 | 71 | 1011.6 |
| 20260903071559 | 67 | 139 | 0.0 | 2.0 | 0.00 | 0.21 | 0.00 | 71 | 1011.4 |
| 20260903070059 | 67 | 141 | 0.0 | 1.0 | 0.00 | 0.21 | 0.00 | 71 | 1011.4 |
| 20260903064555 | 67 | 142 | 0.0 | 1.0 | 0.00 | 0.21 | 0.00 | 71 | 1011.6 |
| 20260903063115 | 67 | 153 | 0.0 | 2.0 | 0.00 | 0.21 | 0.00 | 71 | 1011.5 |
| 20260903061554 | 68 | 153 | 0.0 | 2.0 | 0.00 | 0.21 | 0.00 | 70 | 1011.8 |
| 20260903060057 | 68 | 155 | 0.0 | 1.0 | 0.00 | 0.21 | 0.00 | 70 | 1012.0 |
| 20260903054552 | 68 | 162 | 0.0 | 1.0 | 0.00 | 0.21 | 0.00 | 70 | 1012.1 |
| 20260903053051 | 68 | 228 | 0.0 | 3.0 | 0.00 | 0.21 | 0.00 | 70 | 1012.1 |